Location: Mascot Post Office (historical)
(40.2645°N, 99.5462°W)
Time: 16:49:43
(UTC+00:00)

Cosmos 1536 - Pass Details

Date: 14 July 2020
Orbit: 539 x 559 km, 82.5° (Epoch: 04 August)

Event Time Altitude Azimuth Distance (km) Brightness Sun altitude
Exits shadow 08:25:56 33° 110° (ESE) 949 4.0 -23.8°
Maximum altitude 08:26:30 35° 92° (E) 918 4.1 -23.7°
Drops below altitude 10° 08:30:12 10° 26° (NNE) 1,846 6.6 -23.4°
Sets 08:32:30 0° 17° (NNE) 2,742 7.8 -23.2°
